This is the latest recevied weather packets stored in our database for station/object KI5RAB. If no packets are shown the sender has not sent any weather packets the latest 10 day(s).
| Time | Temp. | Humidity | Pressure | Rain* | Wind** | Luminosity | Snow |
|---|---|---|---|---|---|---|---|
| 1778077341 | 23.89° C | 92% | 1012.7 hPa | 0 mm | - | 28 W/m² | - |
| 1778077039 | 24.44° C | 91% | 1012.8 hPa | 0 mm | - | 29 W/m² | - |
| 1778076737 | 23.89° C | 91% | 1012.7 hPa | 0 mm | - | 17 W/m² | - |
| 1778076435 | 23.89° C | 91% | 1012.8 hPa | 0 mm | - | 22 W/m² | - |
| 1778076132 | 24.44° C | 91% | 1012.3 hPa | 0 mm | - | 24 W/m² | - |
| 1778075828 | 24.44° C | 91% | 1012.4 hPa | 0 mm | - | 27 W/m² | - |
| 1778075525 | 23.89° C | 91% | 1012.3 hPa | 0 mm | - | 29 W/m² | - |
| 1778075221 | 23.89° C | 91% | 1012.1 hPa | 0 mm | - | 28 W/m² | - |
| 1778074917 | 23.89° C | 90% | 1011.9 hPa | 0 mm | - | 17 W/m² | - |
| 1778074615 | 23.89° C | 90% | 1012.1 hPa | 0 mm | - | 37 W/m² | - |
| 1778074311 | 23.89° C | 91% | 1012.2 hPa | 0 mm | - | 30 W/m² | - |
| 1778074009 | 23.89° C | 91% | 1012 hPa | 0 mm | - | 35 W/m² | - |
| 1778073705 | 23.89° C | 91% | 1011.9 hPa | 0 mm | - | 32 W/m² | - |
| 1778073403 | 23.89° C | 91% | 1011.8 hPa | 0 mm | - | 33 W/m² | - |
| 1778073099 | 23.89° C | 91% | 1011.8 hPa | 0 mm | - | 23 W/m² | - |
| 1778072796 | 23.89° C | 91% | 1011.5 hPa | 0 mm | - | 25 W/m² | - |
| 1778072493 | 23.89° C | 91% | 1011.8 hPa | 0 mm | - | 33 W/m² | - |
| 1778072192 | 23.89° C | 91% | 1011.6 hPa | 0 mm | - | 20 W/m² | - |
| 1778071889 | 23.89° C | 91% | 1011.5 hPa | 0 mm | - | 11 W/m² | - |
| 1778071587 | 23.89° C | 91% | 1011.5 hPa | 0 mm | - | 14 W/m² | - |
| 1778071284 | 23.89° C | 91% | 1011.5 hPa | 0 mm | - | 13 W/m² | - |
| 1778070982 | 23.89° C | 91% | 1011.9 hPa | 0 mm | - | 12 W/m² | - |
| 1778070680 | 23.89° C | 91% | 1011.6 hPa | 0 mm | - | 11 W/m² | - |
| 1778070377 | 23.89° C | 91% | 1011.7 hPa | 0 mm | - | 7 W/m² | - |
| 1778070075 | 23.89° C | 91% | 1011.7 hPa | 0 mm | - | 5 W/m² | - |
* Rain latest hour (hover to see other rain measurements)
** Current wind speed in m/s (hover to see current wind gust speed)